Location: Kunchanapalle
(16.4623°N, 80.6176°E)
Time: 18:40:18
(UTC+00:00)

COSMOS 2406 - Pass Details

Date: 13 August 2020
Orbit: 845 x 862 km, 71.0° (Epoch: 19 September)

Event Time Altitude Azimuth Distance (km) Brightness Sun altitude
Rises 13:34:07 0° 209° (SSW) 3,426 6.5 -7.9°
Reaches altitude 10° 13:36:39 10° 214° (SW) 2,490 5.9 -8.5°
Maximum altitude 13:42:09 48° 288° (WNW) 1,110 4.4 -9.7°
Drops below altitude 10° 13:47:39 10° 2° (N) 2,487 5.9 -11.0°
Sets 13:50:11 0° 8° (N) 3,422 6.5 -11.6°
